FW9064 Weather Reports


Display with metric or nautical units.
time (UTC)temp
F
wind
direction
speed
MPH
gust
MPH
rain 1hr
in
rain 24hr
in
rain mn
in
humidity
%
barometer
mb
20210922023422 73 112 0.0 0.0 0.00 0.00 0.00 99 1016.8
20210922022920 73 112 0.0 0.0 0.00 0.00 0.00 99 1017.3
20210922022419 73 112 0.0 0.0 0.00 0.00 0.00 99 1017.6
20210922021916 73 112 0.0 0.0 0.00 0.00 0.00 99 1017.4
20210922021416 73 112 0.0 0.0 0.00 0.00 0.00 99 1017.5
20210922020915 73 112 0.0 0.0 0.00 0.00 0.00 99 1017.7
20210922020414 73 112 0.0 0.0 0.00 0.00 0.00 99 1017.4
20210922015914 73 112 0.0 0.0 0.00 0.00 0.00 99 1017.4
20210922015412 73 112 0.0 0.0 0.00 0.00 0.00 99 1017.7
20210922014910 73 112 0.0 0.0 0.00 0.00 0.00 99 1017.6
20210922014408 73 112 0.0 0.0 0.00 0.00 0.00 99 1017.7
20210922013907 73 112 0.0 0.0 0.00 0.00 0.00 99 1017.3
20210922013406 73 112 0.0 0.0 0.00 0.00 0.00 98 1017.4
20210922012904 73 112 0.0 0.0 0.00 0.00 0.00 98 1017.4
20210922012403 73 112 0.0 0.0 0.00 0.00 0.00 98 1017.3
20210922011901 73 112 0.0 0.0 0.00 0.00 0.00 98 1016.9
20210922011400 73 112 0.0 0.0 0.00 0.00 0.00 98 1017.2
20210922010858 73 112 0.0 0.0 0.00 0.00 0.00 98 1017.2
20210922010356 74 112 0.0 0.0 0.00 0.00 0.00 97 1017.3
20210922005855 74 112 0.0 0.0 0.00 0.00 0.00 97 1017.0
20210922005354 74 112 0.0 0.0 0.00 0.00 0.00 97 1017.1
20210922004854 74 112 0.0 0.0 0.00 0.00 0.00 97 1017.4
20210922004352 74 112 0.0 0.0 0.00 0.00 0.00 97 1017.0
20210922003850 74 105 0.0 0.0 0.00 0.00 0.00 97 1017.1
20210922003348 74 104 0.0 0.0 0.00 0.00 0.00 97 1016.9
20210922002847 74 107 0.0 0.0 0.00 0.00 0.00 97 1017.0
20210922002347 75 107 0.0 0.0 0.00 0.00 0.00 97 1017.0
20210922001842 75 107 0.0 0.0 0.00 0.00 0.00 97 1016.8
20210922001343 75 106 0.0 0.0 0.00 0.00 0.00 96 1017.0
20210922000842 75 107 0.0 0.0 0.00 0.00 0.00 96 1016.7
20210922000339 75 107 0.0 0.0 0.00 0.00 0.00 96 1017.0
20210921235836 76 108 0.0 0.0 0.00 0.00 0.00 95 1016.9
20210921235335 76 108 0.0 0.0 0.00 0.00 0.00 94 1016.9
20210921234834 76 108 0.0 0.0 0.00 0.00 0.00 93 1017.1
20210921234333 77 108 0.0 0.0 0.00 0.00 0.00 93 1016.9
20210921233832 77 108 0.0 0.0 0.00 0.00 0.00 93 1017.0
20210921233330 78 107 0.0 0.0 0.00 0.00 0.00 90 1016.8
20210921232828 78 110 0.0 0.0 0.00 0.00 0.00 90 1016.6
20210921232326 78 104 0.0 0.0 0.00 0.00 0.00 89 1016.8
20210921231824 78 104 0.0 0.0 0.00 0.00 0.00 89 1016.6
20210921231323 78 109 0.0 0.0 0.00 0.00 0.00 90 1016.5
20210921230820 79 98 1.0 1.0 0.00 0.00 0.00 90 1016.5
20210921230319 79 105 0.0 0.0 0.00 0.00 0.00 91 1016.4
20210921225818 79 105 0.0 0.0 0.00 0.00 0.00 91 1016.4
20210921225316 79 105 0.0 0.0 0.00 0.00 0.00 91 1016.1
20210921224814 80 105 0.0 0.0 0.00 0.00 0.00 90 1016.5
20210921224309 80 115 0.0 0.0 0.00 0.00 0.00 90 1016.3
20210921223806 80 116 0.0 0.0 0.00 0.00 0.00 89 1016.2
20210921223306 80 115 0.0 0.0 0.00 0.00 0.00 88 1016.0
20210921222804 81 115 0.0 0.0 0.00 0.00 0.00 86 1016.0
20210921222304 81 116 0.0 0.0 0.00 0.00 0.00 87 1016.0
20210921221754 82 116 0.0 0.0 0.00 0.00 0.00 84 1016.1
20210921221252 81 116 0.0 0.0 0.00 0.00 0.00 83 1015.9
20210921220752 82 116 0.0 0.0 0.00 0.00 0.00 83 1016.1
20210921220251 82 115 0.0 0.0 0.00 0.00 0.00 81 1016.1
20210921215750 82 115 0.0 0.0 0.00 0.00 0.00 80 1015.9
20210921215249 83 115 0.0 0.0 0.00 0.00 0.00 79 1015.5
20210921214747 83 116 0.0 0.0 0.00 0.00 0.00 78 1015.9
20210921214245 83 116 0.0 0.0 0.00 0.00 0.00 77 1015.9
20210921213745 83 109 0.0 0.0 0.00 0.00 0.00 80 1016.0
20210921213242 83 108 0.0 0.0 0.00 0.00 0.00 79 1016.0
20210921212740 83 108 0.0 0.0 0.00 0.00 0.00 81 1016.1
20210921212240 83 113 0.0 0.0 0.00 0.00 0.00 82 1016.0
20210921211737 82 113 0.0 0.0 0.00 0.00 0.00 84 1016.3
20210921211237 82 110 0.0 0.0 0.00 0.00 0.00 85 1015.9
20210921210735 83 122 0.0 0.0 0.00 0.00 0.00 85 1016.3
20210921210235 83 111 0.0 0.0 0.00 0.00 0.00 84 1016.2
20210921205734 83 111 0.0 0.0 0.00 0.00 0.00 82 1016.4
20210921205232 83 111 0.0 0.0 0.00 0.00 0.00 81 1016.3
20210921204731 84 108 0.0 0.0 0.00 0.00 0.00 80 1016.5
20210921204230 84 110 0.0 0.0 0.00 0.00 0.00 78 1016.5
20210921203727 83 110 0.0 0.0 0.00 0.00 0.00 77 1016.5
20210921203227 83 111 0.0 0.0 0.00 0.00 0.00 79 1016.4
20210921202725 84 114 0.0 0.0 0.00 0.00 0.00 80 1016.7
20210921202223 83 130 1.0 1.0 0.00 0.00 0.00 80 1016.7
20210921201723 83 117 1.0 1.0 0.00 0.00 0.00 80 1016.6
20210921201221 83 111 0.0 0.0 0.00 0.00 0.00 80 1016.6
20210921200719 83 105 0.0 0.0 0.00 0.00 0.00 81 1016.7
20210921200219 83 119 0.0 0.0 0.00 0.00 0.00 82 1016.7
20210921195717 83 125 1.0 1.0 0.00 0.00 0.00 79 1016.8
20210921195216 84 114 0.0 1.0 0.00 0.00 0.00 79 1016.8
20210921194714 84 133 1.0 1.0 0.00 0.00 0.00 76 1016.7
20210921194213 84 112 0.0 0.0 0.00 0.00 0.00 80 1016.9
20210921193712 82 108 1.0 1.0 0.00 0.00 0.00 81 1016.7
20210921193210 82 115 0.0 0.0 0.00 0.00 0.00 81 1017.0
20210921192708 80 122 0.0 0.0 0.00 0.00 0.00 85 1017.1
20210921192206 78 117 0.0 0.0 0.00 0.00 0.00 91 1017.4
20210921191706 77 105 0.0 0.0 0.00 0.00 0.00 92 1017.4
20210921191204 77 111 0.0 0.0 0.04 0.00 0.00 91 1017.5
20210921190702 77 111 0.0 0.0 0.04 0.00 0.00 91 1017.5
20210921190200 77 105 0.0 1.0 0.00 0.00 0.00 89 1017.6
20210921185700 79 144 3.0 3.0 0.00 0.00 0.00 86 1017.7
20210921185159 81 109 1.0 1.0 0.00 0.00 0.00 82 1017.8
20210921184658 82 161 2.0 3.0 0.00 0.00 0.00 81 1017.7
20210921184156 84 113 1.0 2.0 0.00 0.00 0.00 76 1017.6
20210921183655 86 111 1.0 1.0 0.00 0.00 0.00 72 1017.6
20210921183153 88 107 0.0 1.0 0.00 0.00 0.00 71 1017.5
20210921182650 89 130 1.0 1.0 0.00 0.00 0.00 67 1017.5
20210921182150 88 110 0.0 1.0 0.00 0.00 0.00 67 1017.9
20210921181646 88 119 0.0 0.0 0.00 0.00 0.00 66 1017.7
20210921181145 86 106 0.0 1.0 0.00 0.00 0.00 68 1018.2
20210921180642 87 171 2.0 3.0 0.00 0.00 0.00 70 1018.0
20210921180142 86 115 0.0 0.0 0.00 0.00 0.00 76 1018.1
20210921175640 86 114 0.0 0.0 0.00 0.00 0.00 75 1018.1
20210921175140 84 110 0.0 0.0 0.00 0.00 0.00 76 1018.3
20210921174637 85 112 0.0 0.0 0.00 0.00 0.00 78 1018.3
20210921174137 85 112 0.0 1.0 0.00 0.00 0.00 76 1018.5
20210921173635 85 109 0.0 1.0 0.00 0.00 0.00 76 1018.7
20210921173134 84 136 1.0 1.0 0.00 0.00 0.00 75 1018.7
20210921172632 86 116 0.0 1.0 0.00 0.00 0.00 74 1018.8
20210921172130 88 110 0.0 1.0 0.00 0.00 0.00 68 1018.9
20210921171627 87 239 2.0 3.0 0.00 0.00 0.00 67 1018.8
20210921171125 87 122 0.0 1.0 0.00 0.00 0.00 75 1018.9
20210921170625 85 113 0.0 0.0 0.00 0.00 0.00 74 1018.9
20210921170123 83 113 1.0 1.0 0.00 0.00 0.00 77 1018.9
20210921165619 81 107 0.0 0.0 0.00 0.00 0.00 81 1019.1
20210921165118 82 109 0.0 0.0 0.00 0.00 0.00 83 1019.2
20210921164617 81 110 0.0 0.0 0.00 0.00 0.00 83 1019.1
20210921164116 82 112 1.0 1.0 0.00 0.00 0.00 83 1019.2
20210921163615 84 134 1.0 1.0 0.00 0.00 0.00 76 1019.1
20210921163115 83 112 0.0 0.0 0.00 0.00 0.00 76 1019.4
20210921162608 84 108 1.0 1.0 0.00 0.00 0.00 77 1019.5
20210921162108 82 105 0.0 0.0 0.00 0.00 0.00 82 1019.5
20210921161606 81 111 0.0 0.0 0.00 0.00 0.00 85 1019.5
20210921161106 82 105 0.0 0.0 0.00 0.00 0.00 84 1019.7
20210921160603 81 103 0.0 0.0 0.00 0.00 0.00 82 1019.8
20210921160103 82 113 1.0 1.0 0.00 0.00 0.00 83 1019.7
20210921155602 82 110 0.0 0.0 0.00 0.00 0.00 82 1019.8
20210921155057 82 113 0.0 1.0 0.00 0.00 0.00 83 1019.6
20210921154555 83 113 0.0 0.0 0.00 0.00 0.00 81 1019.7
20210921154054 84 114 0.0 0.0 0.00 0.00 0.00 78 1019.8
20210921153554 83 127 0.0 0.0 0.00 0.00 0.00 79 1020.0
20210921153053 81 120 2.0 2.0 0.00 0.00 0.00 82 1019.9
20210921152553 81 114 0.0 0.0 0.00 0.00 0.00 83 1019.9
20210921152051 81 111 0.0 0.0 0.00 0.00 0.00 84 1019.9
20210921151549 80 110 0.0 0.0 0.00 0.00 0.00 86 1019.9
20210921151048 80 111 0.0 0.0 0.00 0.00 0.00 85 1019.7
20210921150545 80 108 1.0 1.0 0.00 0.00 0.00 85 1019.5
20210921150043 81 120 1.0 2.0 0.00 0.00 0.00 83 1019.5
20210921145543 81 111 0.0 0.0 0.00 0.00 0.00 83 1019.5
20210921145042 82 119 0.0 0.0 0.00 0.00 0.00 83 1019.6
20210921144540 80 100 0.0 0.0 0.00 0.00 0.00 84 1019.5
20210921144040 78 112 0.0 0.0 0.00 0.00 0.00 89 1019.6
20210921143538 79 111 0.0 0.0 0.00 0.00 0.00 88 1019.4
20210921143038 79 104 0.0 0.0 0.00 0.00 0.00 86 1019.4
20210921142531 79 108 0.0 0.0 0.00 0.00 0.00 88 1019.5
20210921142023 78 106 0.0 0.0 0.00 0.00 0.00 89 1019.1
20210921141519 78 102 0.0 0.0 0.00 0.00 0.00 91 1019.3
20210921141018 77 105 0.0 0.0 0.00 0.00 0.00 92 1019.4
20210921140514 77 115 0.0 0.0 0.00 0.00 0.00 92 1019.6
20210921140013 77 102 0.0 0.0 0.00 0.00 0.00 92 1019.2
20210921135510 76 102 0.0 0.0 0.00 0.00 0.00 94 1019.2
20210921135009 76 102 0.0 0.0 0.00 0.00 0.00 95 1019.1
20210921134505 76 118 0.0 0.0 0.00 0.00 0.00 95 1019.3
20210921134005 76 117 0.0 0.0 0.00 0.00 0.00 95 1019.3
20210921133503 76 117 0.0 0.0 0.00 0.00 0.00 96 1019.3
20210921133001 75 117 0.0 0.0 0.00 0.00 0.00 96 1019.1
20210921132500 75 116 0.0 0.0 0.00 0.00 0.00 96 1019.2
20210921131956 75 117 0.0 0.0 0.00 0.00 0.00 97 1019.2
20210921131455 75 117 0.0 0.0 0.00 0.00 0.00 97 1019.2
20210921130952 75 117 0.0 0.0 0.00 0.00 0.00 98 1019.3
20210921130452 74 117 0.0 0.0 0.00 0.00 0.00 98 1019.3
20210921125950 74 117 0.0 0.0 0.00 0.00 0.00 98 1019.1
20210921125448 74 117 0.0 0.0 0.00 0.00 0.00 98 1018.8
20210921124946 74 117 0.0 0.0 0.00 0.00 0.00 99 1019.0
20210921124445 74 117 0.0 0.0 0.00 0.00 0.00 99 1019.0
20210921123943 74 117 0.0 0.0 0.00 0.00 0.00 99 1018.9
20210921123441 74 117 0.0 0.0 0.00 0.00 0.00 99 1018.9
20210921122939 74 117 0.0 0.0 0.00 0.00 0.00 99 1019.0
20210921122440 74 117 0.0 0.0 0.00 0.00 0.00 99 1018.9
20210921121939 74 117 0.0 0.0 0.00 0.00 0.00 99 1018.7
20210921121437 74 117 0.0 0.0 0.00 0.00 0.00 99 1019.1
20210921120935 73 117 0.0 0.0 0.00 0.00 0.00 99 1019.0
20210921120433 73 117 0.0 0.0 0.00 0.00 0.00 99 1018.8
20210921115931 73 117 0.0 0.0 0.00 0.00 0.00 99 1018.8
20210921115430 73 117 0.0 0.0 0.00 0.00 0.00 99 1018.3
20210921114929 73 118 0.0 0.0 0.00 0.00 0.00 99 1018.7
20210921114427 73 109 0.0 0.0 0.00 0.00 0.00 99 1018.6
20210921113924 73 116 0.0 0.0 0.00 0.00 0.00 99 1018.6
20210921113406 73 116 0.0 0.0 0.00 0.00 0.00 99 1018.4
20210921112903 73 116 0.0 0.0 0.00 0.00 0.00 99 1018.6
20210921112401 73 116 0.0 0.0 0.00 0.00 0.00 99 1018.5
20210921111900 73 116 0.0 0.0 0.00 0.00 0.00 99 1018.2
20210921111358 73 116 0.0 0.0 0.00 0.00 0.00 99 1018.5
20210921110858 73 116 0.0 0.0 0.00 0.00 0.00 99 1018.1
20210921110357 73 117 0.0 0.0 0.00 0.00 0.00 99 1018.2
20210921105855 73 117 0.0 0.0 0.00 0.00 0.00 99 1018.1
20210921105355 73 115 0.0 0.0 0.00 0.00 0.00 99 1018.1
20210921104855 73 115 0.0 0.0 0.00 0.00 0.00 99 1018.0
20210921104352 73 115 0.0 0.0 0.00 0.00 0.00 99 1017.7
20210921103851 74 115 0.0 0.0 0.00 0.00 0.00 99 1018.0
20210921103350 73 115 0.0 0.0 0.00 0.00 0.00 99 1017.9
20210921102850 73 115 0.0 0.0 0.00 0.00 0.00 99 1017.7
20210921102348 73 115 0.0 0.0 0.00 0.00 0.00 99 1017.8
20210921101848 73 115 0.0 0.0 0.00 0.00 0.00 99 1017.8
20210921101346 73 115 0.0 0.0 0.00 0.00 0.00 99 1017.6
20210921100845 74 115 0.0 0.0 0.00 0.00 0.00 99 1017.6
20210921100344 73 115 0.0 0.0 0.00 0.00 0.00 99 1017.5
20210921095841 73 115 0.0 0.0 0.00 0.00 0.00 99 1017.5
20210921095340 74 114 0.0 0.0 0.00 0.00 0.00 99 1017.5
20210921094839 74 114 0.0 0.0 0.00 0.00 0.00 99 1017.4
20210921094340 74 114 0.0 0.0 0.00 0.00 0.00 99 1017.7
20210921093837 74 114 0.0 0.0 0.00 0.00 0.00 99 1017.7
20210921093337 74 114 0.0 0.0 0.00 0.00 0.00 99 1017.4
20210921092835 74 114 0.0 0.0 0.00 0.00 0.00 99 1017.4
20210921092335 74 114 0.0 0.0 0.00 0.00 0.00 99 1017.3
20210921091833 74 115 0.0 0.0 0.00 0.00 0.00 99 1017.3
20210921091332 74 115 0.0 0.0 0.00 0.00 0.00 99 1017.5
20210921090830 74 114 0.0 0.0 0.00 0.00 0.00 99 1017.2
20210921090327 74 114 0.0 0.0 0.00 0.00 0.00 99 1017.3
20210921085827 74 114 0.0 0.0 0.00 0.00 0.00 99 1017.4
20210921085325 74 114 0.0 0.0 0.00 0.00 0.00 99 1017.1
20210921084824 74 114 0.0 0.0 0.00 0.00 0.00 99 1017.3
20210921084322 74 114 0.0 0.0 0.00 0.00 0.00 99 1017.2
20210921083821 74 114 0.0 0.0 0.00 0.00 0.00 99 1017.2
20210921083320 74 115 0.0 0.0 0.00 0.00 0.00 99 1017.2
20210921082816 74 102 0.0 0.0 0.00 0.00 0.00 99 1017.2
20210921082316 74 98 0.0 0.0 0.00 0.00 0.00 99 1017.3
20210921081816 74 106 0.0 0.0 0.00 0.00 0.00 99 1017.1
20210921081315 74 103 0.0 0.0 0.00 0.00 0.00 99 1017.3
20210921080812 74 109 0.0 0.0 0.00 0.00 0.00 99 1017.3
20210921080310 74 107 0.0 0.0 0.00 0.00 0.00 99 1017.1
20210921075807 74 115 0.0 0.0 0.00 0.00 0.00 99 1017.3
20210921075307 74 115 0.0 0.0 0.00 0.00 0.00 99 1017.2
20210921074803 74 107 0.0 0.0 0.00 0.00 0.00 99 1017.0
20210921074303 74 105 0.0 0.0 0.00 0.00 0.00 99 1016.9
20210921073802 74 109 0.0 0.0 0.00 0.00 0.00 99 1017.1
20210921073300 74 111 0.0 1.0 0.00 0.00 0.00 99 1017.2
20210921072800 74 108 0.0 0.0 0.00 0.00 0.00 99 1017.2
20210921072257 74 108 0.0 0.0 0.00 0.00 0.00 99 1017.1
20210921071756 74 108 0.0 0.0 0.00 0.00 0.00 99 1017.0
20210921071254 74 102 0.0 0.0 0.00 0.00 0.00 99 1017.0
20210921070753 74 110 0.0 0.0 0.00 0.00 0.00 99 1017.0
20210921070252 74 110 0.0 0.0 0.00 0.00 0.00 99 1016.8
20210921065751 74 110 0.0 0.0 0.00 0.00 0.00 99 1016.9
20210921065249 74 112 0.0 0.0 0.00 0.00 0.00 98 1016.9
20210921064749 74 110 0.0 0.0 0.00 0.00 0.00 98 1016.8
20210921064247 74 110 0.0 0.0 0.00 0.00 0.00 98 1016.7
20210921063744 74 127 0.0 1.0 0.00 0.00 0.00 98 1016.8
20210921063243 74 108 0.0 0.0 0.00 0.00 0.00 98 1016.7
20210921062743 74 104 0.0 0.0 0.00 0.00 0.00 98 1016.6
20210921062241 74 111 0.0 0.0 0.00 0.00 0.00 99 1017.0
20210921061736 74 109 0.0 0.0 0.00 0.00 0.00 98 1017.1
20210921061236 74 101 0.0 0.0 0.00 0.00 0.00 99 1017.3
20210921060734 74 110 0.0 0.0 0.00 0.00 0.00 99 1017.0
20210921060233 74 111 0.0 0.0 0.00 0.00 0.00 99 1017.1
20210921055731 74 117 0.0 0.0 0.00 0.00 0.00 99 1017.2
20210921055229 74 101 0.0 0.0 0.00 0.00 0.00 99 1017.2
20210921054728 74 101 0.0 0.0 0.00 0.00 0.00 99 1017.4
20210921054226 74 103 0.0 0.0 0.00 0.00 0.00 99 1017.3
20210921053724 74 103 0.0 0.0 0.00 0.00 0.00 99 1017.1
20210921053222 74 103 0.0 0.0 0.00 0.00 0.00 99 1017.3
20210921052720 74 103 0.0 0.0 0.00 0.00 0.00 98 1017.3
20210921052218 74 101 0.0 0.0 0.00 0.00 0.00 99 1017.2
20210921051718 74 102 0.0 0.0 0.00 0.00 0.00 99 1017.3
20210921051216 74 102 0.0 0.0 0.00 0.00 0.00 99 1017.5
20210921050709 74 102 0.0 0.0 0.00 0.00 0.00 99 1017.4
20210921050209 74 102 0.0 0.0 0.00 0.00 0.00 99 1017.5
20210921045708 74 101 0.0 0.0 0.00 0.05 0.05 99 1017.3
20210921045202 74 103 0.0 0.0 0.00 0.05 0.05 99 1017.5
20210921044701 74 106 0.0 0.0 0.00 0.05 0.05 99 1017.5
20210921044157 74 125 0.0 0.0 0.00 0.05 0.05 99 1017.6
20210921043657 74 113 0.0 0.0 0.00 0.05 0.05 99 1017.4
20210921043155 74 100 0.0 0.0 0.00 0.05 0.05 99 1017.4
20210921042654 73 109 0.0 0.0 0.00 0.05 0.05 99 1017.3
20210921042154 73 104 0.0 0.0 0.00 0.05 0.05 99 1017.3
20210921041654 73 114 0.0 0.0 0.00 0.05 0.05 99 1017.6
20210921041153 73 105 0.0 0.0 0.00 0.05 0.05 99 1017.4
20210921040651 73 119 0.0 0.0 0.00 0.05 0.05 99 1017.4
20210921040150 73 112 0.0 0.0 0.00 0.05 0.05 99 1017.3
20210921035649 73 116 0.0 0.0 0.00 0.05 0.05 99 1017.6
20210921035147 73 109 0.0 0.0 0.00 0.05 0.05 99 1017.2
20210921034645 73 101 0.0 0.0 0.00 0.05 0.05 99 1017.4
20210921034145 73 101 0.0 0.0 0.00 0.05 0.05 99 1017.5
20210921033642 73 101 0.0 0.0 0.00 0.05 0.05 99 1017.6
20210921033139 73 102 0.0 0.0 0.00 0.05 0.05 99 1017.6
20210921032639 73 99 0.0 1.0 0.00 0.05 0.05 99 1017.6
20210921032137 73 99 0.0 0.0 0.00 0.05 0.05 99 1017.5
20210921031637 73 101 0.0 0.0 0.00 0.05 0.05 99 1017.6
20210921031134 73 109 0.0 0.0 0.00 0.05 0.05 99 1017.6
20210921030630 73 110 0.0 0.0 0.00 0.05 0.05 99 1017.3
20210921030129 74 109 0.0 0.0 0.00 0.05 0.05 99 1017.5
20210921025628 74 110 0.0 0.0 0.00 0.05 0.05 99 1017.4
20210921025127 74 110 0.0 0.0 0.00 0.05 0.05 99 1017.5
20210921024627 74 108 0.0 0.0 0.00 0.05 0.05 99 1017.3
20210921024127 74 108 0.0 0.0 0.00 0.05 0.05 99 1017.3
20210921023625 74 109 0.0 0.0 0.00 0.05 0.05 99 1017.5